Regional Weather Roundup
Issued by NWS Mt. Holly, NJ

Home | Current Version | Previous Version | Text Only | Print | Product List | Glossary On
Versions: 1 2 3 4 5 6 7 8 9 10 11 12 13 14 15 16 17 18 19 20 21 22 23 24 25 26 27 28
000
ASUS41 KPHI 290412
RWRPHI

REGIONAL WEATHER ROUNDUP
NATIONAL WEATHER SERVICE MOUNT HOLLY NJ
1200 AM EDT SUN MAY 29 2016

NOTE:  "FAIR" INDICATES FEW OR NO CLOUDS BELOW 12,000 FEET WITH NO
SIGNIFICANT WEATHER AND/OR OBSTRUCTIONS TO VISIBILITY.

 * = STATION DOES NOT REPORT PRECIPITATION (E.G. RAIN, SNOW, ETC.)
        OR FOG.

NJZ015>026-290500-
SOUTHERN NEW JERSEY

CITY           SKY/WX    TMP DP  RH WIND       PRES   REMARKS
POMONA         CLEAR     69  60  73 SW8       30.17S
WILDWOOD*      CLEAR    N/A N/A N/A S6        30.18S
MILLVILLE      CLEAR     69  55  60 CALM      30.17R
WRIGHTSTOWN    CLEAR     69  48  46 SW8       30.13S
MOUNT HOLLY    CLEAR     71  51  49 VRB3      30.15S
TRENTON        CLEAR     74  59  59 S8        30.14R

$$
NJZ001>014-290500-
NORTHERN NEW JERSEY

CITY           SKY/WX    TMP DP  RH WIND       PRES   REMARKS
SUSSEX         CLEAR     71  68  90 CALM      30.13R
ANDOVER*         N/A     70  68  93 S3        30.14R
MORRISTOWN     CLEAR     73  64  73 S3        30.13R
NEWARK         CLEAR     78  62  57 S13       30.12R
TETERBORO      PTCLDY    79  62  56 S7        30.10S
CALDWELL       CLEAR     75  68  78 CALM      30.12S
SOMERVILLE     CLEAR     72  66  81 S3        30.11S
TOMS RIVER*    CLEAR    N/A N/A N/A SW6       30.16S

$$
PAZ043-044-047-054-055-060>062-066>071-290500-
EASTERN PENNSYLVANIA

CITY           SKY/WX    TMP DP  RH WIND       PRES   REMARKS
PHILADELPHIA   PTCLDY    73  59  61 S3        30.15S
NORTH PHILA    CLEAR     76  58  53 VRB3      30.16S
BLUE BELL*     CLEAR     72  63  73 S5        30.15R
DOYLESTOWN     CLEAR     73  62  68 S5        30.14S
QUAKERTOWN*    CLEAR     72  66  83 CALM      30.16S
PERKASIE*      FAIR      73  66  78 S3        30.16S
POTTSTOWN      CLEAR     74  66  76 S3        30.16R
LANCASTER      PTCLDY    74  59  59 S3        30.15R
COATESVILLE    CLOUDY    73  61  64 VRB5      30.18S
READING        CLOUDY    78  61  55 SW5       30.13R
ALLENTOWN      CLEAR     73  63  70 SW6       30.13S
MOUNT POCONO   CLEAR     69  64  84 W7        30.19S
HAZLETON       PTCLDY    72  64  78 CALM      30.21S
LEHIGHTON      FAIR      68  66  94 CALM      30.15S FOG
WILKES BARRE   CLEAR     74  67  78 CALM      30.14R

$$
DEZALL-MDZ008-012-015-019-020-290500-
DELAWARE AND EASTERN MARYLAND

CITY           SKY/WX    TMP DP  RH WIND       PRES   REMARKS
WILMINGTON     CLOUDY    73  58  59 SW5       30.16S
DOVER          CLEAR     70  57  65 S8        30.16R
GEORGETOWN     CLOUDY    66  61  84 CALM      30.17F
EASTON         CLEAR     69  65  85 S5        30.20S
PATUXENT       CLEAR     68  61  78 SE5       30.15F
OCEAN CITY     CLOUDY    66  62  87 SW3       30.17F
WALLOPS ISLAND FAIR      67  64  90 S6        30.17F
CAMBRIDGE        N/A     63  59  88 SE3       30.16S
SALISBURY      CLOUDY    61  59  93 CALM      30.16F

$$
PAZ001-021-NYZ056-072-MDZ011-DCZ001-290500-
OTHER NEARBY LOCATIONS

CITY           SKY/WX    TMP DP  RH WIND       PRES   REMARKS
HARRISBURG     PTCLDY    78  63  59 S6        30.12S
STATE COLLEGE  CLOUDY    75  65  71 W3        30.14S
WILLIAMSPORT   CLEAR     74  67  78 N6        30.10R
BINGHAMTON     CLOUDY    75  64  68 CALM      30.15S
NEW YORK CITY  CLEAR     78  62  57 VRB5      30.15R
BALTIMORE      PTCLDY    71  57  61 CALM      30.15S
WASHINGTON DC  FAIR      73  63  70 S7        30.15S

$$




USA.gov is the U.S. government's official web portal to all federal, state and local government web resources and services.